DL7GAI-7 Weather Reports


Display with metric or nautical units.
time (UTC)temp
F
wind
direction
speed
MPH
gust
MPH
rain 1hr
in
rain 24hr
in
rain mn
in
humidity
%
barometer
mb
20260508040747 43 0 1.0 4.0 0.00 0.01 0.00 95 1016.6
20260508035431 43 0 1.0 4.0 0.00 0.01 0.00 95 1016.6
20260508034222 43 0 1.0 4.0 0.00 0.01 0.00 95 1016.6
20260508032903 43 0 2.0 4.0 0.00 0.01 0.00 93 1016.5
20260508031603 43 0 2.0 4.0 0.00 0.01 0.00 93 1016.5
20260508030315 44 0 1.0 5.0 0.00 0.01 0.00 92 1016.4
20260508024849 44 0 1.0 5.0 0.00 0.01 0.00 92 1016.4
20260508023425 45 0 0.0 5.0 0.00 0.01 0.00 89 1016.3
20260508022130 45 0 0.0 5.0 0.00 0.01 0.00 89 1016.3
20260508020745 45 0 0.0 5.0 0.00 0.01 0.00 89 1016.3
20260508015451 45 0 2.0 5.0 0.00 0.01 0.00 93 1016.3
20260508014201 45 0 2.0 5.0 0.00 0.01 0.00 93 1016.3
20260508012745 46 315 3.0 4.0 0.00 0.01 0.00 92 1016.3
20260508011405 46 315 3.0 4.0 0.00 0.01 0.00 92 1016.3
20260508010130 49 135 1.0 6.0 0.00 0.01 0.00 83 1016.1
20260508004909 49 135 1.0 6.0 0.00 0.01 0.00 83 1016.1
20260508003509 50 90 3.0 6.0 0.00 0.01 0.01 83 1016.3
20260508002100 50 90 3.0 6.0 0.00 0.01 0.01 83 1016.3
20260508000705 50 90 3.0 6.0 0.00 0.01 0.01 83 1016.3
20260507235430 50 0 5.0 16.0 0.00 0.01 0.01 81 1016.6
20260507234117 50 0 5.0 16.0 0.00 0.01 0.01 81 1016.6
20260507232755 52 45 6.0 16.0 0.00 0.01 0.01 78 1016.4
20260507231430 52 45 6.0 16.0 0.00 0.01 0.01 78 1016.4
20260507230100 53 45 7.0 14.0 0.00 0.01 0.01 76 1016.2
20260507224635 53 45 7.0 14.0 0.00 0.01 0.01 76 1016.2
20260507223245 54 45 7.0 11.0 0.00 0.01 0.01 74 1015.9
20260507221900 54 45 7.0 11.0 0.00 0.01 0.01 74 1015.9
20260507220503 54 45 5.0 11.0 0.00 0.01 0.01 75 1015.9
20260507215136 54 45 5.0 11.0 0.00 0.01 0.01 75 1015.9
20260507213715 54 45 5.0 11.0 0.00 0.01 0.01 75 1015.9
20260507212355 55 45 7.0 11.0 0.00 0.01 0.01 71 1015.5
20260507210909 55 45 7.0 11.0 0.00 0.01 0.01 71 1015.5
20260507205425 56 45 6.0 11.0 0.00 0.01 0.01 67 1015.3
20260507204057 56 45 6.0 11.0 0.00 0.01 0.01 67 1015.3
20260507202607 56 0 5.0 8.0 0.00 0.01 0.01 67 1015.0
20260507201305 56 0 5.0 8.0 0.00 0.01 0.01 67 1015.0
20260507195930 55 0 4.0 7.0 0.00 0.01 0.01 70 1014.8
20260507194647 55 0 4.0 7.0 0.00 0.01 0.01 70 1014.8
20260507193235 56 0 5.0 7.0 0.00 0.01 0.01 65 1014.5
20260507191857 56 0 5.0 7.0 0.00 0.01 0.01 65 1014.5
20260507190500 56 0 5.0 9.0 0.00 0.01 0.01 67 1014.2
20260507185055 56 0 5.0 9.0 0.00 0.01 0.01 67 1014.2
20260507183705 56 0 5.0 9.0 0.00 0.01 0.01 67 1014.2
20260507182425 58 0 6.0 12.0 0.00 0.01 0.01 60 1013.7
20260507181057 58 0 6.0 12.0 0.00 0.01 0.01 60 1013.7
20260507175620 58 0 6.0 12.0 0.00 0.01 0.01 60 1013.7
20260507174307 58 0 6.0 12.0 0.00 0.01 0.01 60 1013.7
20260507172901 61 0 6.0 11.0 0.00 0.01 0.01 53 1013.5
20260507171435 61 0 6.0 11.0 0.00 0.01 0.01 53 1013.5
20260507170015 63 270 3.0 12.0 0.00 0.01 0.01 51 1013.2
20260507164620 63 270 3.0 12.0 0.00 0.01 0.01 51 1013.2
20260507163245 62 315 6.0 11.0 0.00 0.01 0.01 51 1013.4
20260507161945 62 315 6.0 11.0 0.00 0.01 0.01 51 1013.4
20260507160605 62 315 6.0 11.0 0.00 0.01 0.01 51 1013.4
20260507155152 62 315 6.0 11.0 0.00 0.01 0.01 51 1013.4
20260507153907 62 315 6.0 11.0 0.00 0.01 0.01 51 1013.4
20260507152455 63 270 3.0 11.0 0.00 0.01 0.01 52 1013.3
20260507151110 63 270 3.0 11.0 0.00 0.01 0.01 52 1013.3
20260507145657 62 0 7.0 16.0 0.00 0.01 0.01 58 1013.5
20260507144410 62 0 7.0 16.0 0.00 0.01 0.01 58 1013.5
20260507142945 62 270 7.0 16.0 0.00 0.01 0.01 51 1013.6
20260507141535 62 270 7.0 16.0 0.00 0.01 0.01 51 1013.6
20260507140224 61 270 10.0 16.0 0.00 0.01 0.01 57 1013.7
20260507134857 61 270 10.0 16.0 0.00 0.01 0.01 57 1013.7
20260507133540 58 270 8.0 15.0 0.00 0.01 0.01 64 1014.2
20260507132307 58 270 8.0 15.0 0.00 0.01 0.01 64 1014.2
20260507130945 58 270 8.0 15.0 0.00 0.01 0.01 64 1014.2
20260507125705 58 270 8.0 15.0 0.00 0.01 0.01 64 1014.2
20260507124330 58 270 8.0 15.0 0.00 0.01 0.01 64 1014.2
20260507123004 58 270 7.0 13.0 0.00 0.01 0.01 66 1014.4
20260507121746 58 270 7.0 13.0 0.00 0.01 0.01 66 1014.4
20260507120335 56 270 8.0 15.0 0.00 0.01 0.01 68 1014.7
20260507115015 56 270 8.0 15.0 0.00 0.01 0.01 68 1014.7
20260507113630 56 270 8.0 15.0 0.00 0.01 0.01 68 1014.7
20260507112144 55 270 7.0 15.0 0.00 0.01 0.01 71 1014.9
20260507110835 55 270 7.0 15.0 0.00 0.01 0.01 71 1014.9
20260507105519 55 270 7.0 14.0 0.00 0.01 0.01 75 1014.8
20260507104305 55 270 7.0 14.0 0.00 0.01 0.01 75 1014.8
20260507103025 55 270 7.0 14.0 0.00 0.01 0.01 75 1014.8
20260507101715 55 270 7.0 14.0 0.00 0.01 0.01 75 1014.8
20260507100335 52 270 7.0 15.0 0.00 0.01 0.01 82 1015.0
20260507094928 52 270 7.0 15.0 0.00 0.01 0.01 82 1015.0
20260507093505 52 270 7.0 15.0 0.00 0.01 0.01 81 1014.9
20260507092200 52 270 7.0 15.0 0.00 0.01 0.01 81 1014.9
20260507090910 52 270 7.0 15.0 0.00 0.01 0.01 81 1014.9
20260507085610 51 270 6.0 16.0 0.01 0.01 0.01 86 1014.9
20260507084345 51 270 6.0 16.0 0.01 0.01 0.01 86 1014.9
20260507083034 50 270 9.0 16.0 0.00 0.01 0.04 86 1014.4
20260507081657 50 270 9.0 16.0 0.00 0.01 0.04 86 1014.4
20260507080408 50 270 9.0 16.0 0.00 0.01 0.04 86 1014.4
20260507075115 50 270 9.0 16.0 0.00 0.01 0.04 86 1014.4
20260507073745 50 270 9.0 16.0 0.00 0.01 0.04 86 1014.4
20260507072309 50 270 9.0 16.0 0.00 0.01 0.04 86 1014.4
20260507071005 50 270 9.0 16.0 0.00 0.01 0.04 86 1014.4
20260507065637 49 225 8.0 13.0 0.01 0.01 0.04 88 1014.3
20260507064305 49 225 8.0 13.0 0.01 0.01 0.04 88 1014.3
20260507062937 48 270 5.0 9.0 0.01 0.03 0.03 91 1014.1
20260507061554 48 270 5.0 9.0 0.01 0.03 0.03 91 1014.1
20260507060220 48 225 6.0 14.0 0.02 0.02 0.02 89 1013.7
20260507054957 48 225 6.0 14.0 0.02 0.02 0.02 89 1013.7
20260507053615 48 225 6.0 14.0 0.02 0.02 0.02 89 1013.7
20260507052235 49 225 7.0 14.0 0.00 0.00 0.00 84 1013.3
20260507050825 49 225 7.0 14.0 0.00 0.00 0.00 84 1013.3
20260507045435 49 225 7.0 14.0 0.00 0.00 0.00 84 1013.2
20260507044105 49 225 7.0 14.0 0.00 0.00 0.00 84 1013.2
20260507042750 48 225 6.0 10.0 0.00 0.00 0.00 86 1013.2